Home   Weather   Plano   Past weeks

Flag for USA Past Weather in Plano, Texas, USA — Yesterday and Last 2 Weeks

Now
70 °F

Strong thunderstorms. Fog.


Feels Like: 67 °F
Forecast: 73 / 82 °F
Wind: No wind

Location: McKinney Municipal Airport

Current Time: May 28, 2017 at 5:41:52 am

Latest Report: May 28, 2017 at 4:53 am


Visibility: 5 mi

Pressure: 29.81 "Hg

Humidity: 90%

Dew Point: 67 °F

Location of PlanoLocation

Past Weather in Plano — Graph

°F

Plano Temperature Yesterday

Maximum temperature yesterday: 90 °F (at 2:53 pm)
Minimum temperature yesterday: 78 °F (at 5:53 am)
Average temperature yesterday: 83 °F

High & Low Weather Summary for the Past Weeks

 TemperatureHumidityPressure
High94 °F (May 26, 1:53 pm)100% (May 13, 4:53 am)30.18 "Hg (May 13, 4:53 am)
Low53 °F (May 13, 5:53 am)27% (May 17, 4:53 pm)29.59 "Hg (May 25, 5:53 pm)
Average74 °F72%29.84 "Hg
* Reported May 13 4:53 am — May 28 4:20 am, Plano. Weather by CustomWeather, © 2017

Note: Actual official high and low records may vary slightly from our data, if they occured in-between our weather recording intervals... More about our weather records

Advertising

Plano Weather History for the Previous 24 Hours

Scroll right to see more
 ConditionsComfort  
Time TempWeatherWind HumidityBarometerVisibility
4:20 am
Sun, May 28
72 °FThunderstorms. Mostly cloudy.9 mph84%29.86 "Hg5 mi
3:53 am75 °FThundershowers. Overcast.10 mph69%29.80 "Hg10 mi
3:36 am75 °FThundershowers. Overcast.13 mph69%29.83 "Hg10 mi
2:53 am81 °FPassing clouds.20 mph79%29.78 "Hg10 mi
1:53 am81 °FClear.15 mph79%29.73 "Hg10 mi
12:53 am82 °FClear.16 mph79%29.74 "Hg10 mi
11:53 pm
Sat, May 27
82 °FClear.15 mph82%29.73 "Hg9 mi
10:53 pm83 °FClear.16 mph82%29.73 "Hg8 mi
9:53 pm83 °FClear.13 mph82%29.71 "Hg6 mi
8:53 pm84 °FPassing clouds.12 mph77%29.73 "Hg6 mi
7:53 pm87 °FMostly cloudy.14 mph69%29.72 "Hg5 mi
6:53 pm88 °FOvercast.15 mph67%29.74 "Hg5 mi
5:53 pm89 °FMostly cloudy.21 mph68%29.75 "Hg4 mi
4:53 pm89 °FBroken clouds.21 mph65%29.76 "Hg5 mi
3:53 pm88 °FPartly sunny.18 mph70%29.77 "Hg4 mi
2:53 pm90 °FBroken clouds.22 mph66%29.78 "Hg8 mi
1:53 pm89 °FOvercast.18 mph65%29.81 "Hg10 mi
1:00 pm88 °FOvercast.14 mph67%29.85 "Hg10 mi
11:53 am86 °FMostly cloudy.12 mph72%29.83 "Hg10 mi
10:53 am84 °FMostly cloudy.15 mph74%29.83 "Hg10 mi
9:53 am83 °FMostly cloudy.17 mph79%29.83 "Hg10 mi
8:53 am80 °FMostly cloudy.15 mph87%29.82 "Hg9 mi
7:53 am79 °FOvercast.14 mph90%29.82 "Hg7 mi
6:53 am78 °FOvercast.15 mph90%29.81 "Hg7 mi
5:53 am78 °FMostly cloudy.10 mph90%29.80 "Hg9 mi
Weather by CustomWeather, © 2017

See weather overviewHow to use our weather pages